AFR374F LFPG-CYVR

Flight info

Callsign AFR374F
Flight time N/A
Altitude 18000
Route OPALE T421 KUNAV/N0482F360 T421 BIG T420 TNT/N0447F240 L28 AGLIL/N0487F300 M146 LUSOD/N0447F240 M146 ROBOP M147 MAGEE/N0489F360 DCT GOMUP/M085F380 DCT 6220N DCT 6530N DCT 6740N DCT 68N050W/M084F400 DCT CANEL/N0495F400 DCT 6780N DCT 64N00 DCT 60N09 DCT PIBLI DCT NADPI DCT MERYT DCT BOOTH LIONN4
Aircraft A359/H-SABDE2E3GHIJ1J2J3J4J5M1P2RWXYZ/LB1D1

Departure

Time 2026-05-09 09:48
Airport Charles de Gaulle International Airport (LFPG)

Arrival

Time N/A
Airport Vancouver International Airport (CYVR)
Time Latitude Longitude Altitude Speed Heading
2026-05-09 09:24 49.00330 2.59004 361 ft 0 kts 84°
2026-05-09 09:37 49.00328 2.58969 363 ft 4 kts 85°
2026-05-09 09:37 49.00326 2.58928 360 ft 4 kts 85°
2026-05-09 09:37 49.00323 2.58891 360 ft 4 kts 88°
2026-05-09 09:38 49.00327 2.58856 360 ft 4 kts 138°
2026-05-09 09:38 49.00348 2.58849 367 ft 4 kts 196°
2026-05-09 09:38 49.00373 2.58860 362 ft 4 kts 184°
2026-05-09 09:38 49.00381 2.58861 364 ft 0 kts 175°
2026-05-09 09:41 49.00377 2.58861 364 ft 2 kts 176°
2026-05-09 09:41 49.00345 2.58864 364 ft 8 kts 176°
2026-05-09 09:42 49.00274 2.58871 368 ft 13 kts 175°
2026-05-09 09:42 49.00171 2.58885 366 ft 17 kts 175°
2026-05-09 09:42 49.00053 2.58860 369 ft 19 kts 226°
2026-05-09 09:42 49.00030 2.58662 362 ft 21 kts 266°
2026-05-09 09:43 49.00018 2.58430 366 ft 23 kts 265°
2026-05-09 09:43 49.00005 2.58187 364 ft 22 kts 265°
2026-05-09 09:43 48.99993 2.57973 367 ft 19 kts 265°
2026-05-09 09:43 48.99983 2.57784 365 ft 17 kts 265°
2026-05-09 09:44 48.99974 2.57609 367 ft 16 kts 265°
2026-05-09 09:44 48.99965 2.57434 360 ft 17 kts 265°
2026-05-09 09:44 48.99956 2.57258 362 ft 17 kts 265°
2026-05-09 09:44 48.99946 2.57068 366 ft 18 kts 265°
2026-05-09 09:45 48.99935 2.56871 362 ft 19 kts 265°
2026-05-09 09:45 48.99924 2.56664 362 ft 20 kts 265°
2026-05-09 09:45 48.99912 2.56449 365 ft 21 kts 265°
2026-05-09 09:45 48.99901 2.56226 366 ft 21 kts 266°
2026-05-09 09:46 48.99890 2.55997 360 ft 22 kts 268°
2026-05-09 09:46 48.99862 2.55801 365 ft 19 kts 198°
2026-05-09 09:46 48.99771 2.55802 366 ft 9 kts 176°
2026-05-09 09:46 48.99705 2.55811 361 ft 10 kts 174°
2026-05-09 09:47 48.99633 2.55823 364 ft 11 kts 168°
2026-05-09 09:47 48.99602 2.55906 365 ft 9 kts 89°
2026-05-09 09:47 48.99610 2.56030 360 ft 24 kts 85°
2026-05-09 09:47 48.99641 2.56605 368 ft 84 kts 85°
2026-05-09 09:48 48.99702 2.57759 366 ft 134 kts 85°
2026-05-09 09:48 48.99792 2.59392 468 ft 167 kts 85°
2026-05-09 09:48 48.99888 2.61096 1144 ft 159 kts 86°
2026-05-09 09:48 48.99981 2.62804 1685 ft 167 kts 85°
2026-05-09 09:49 49.00077 2.64656 2013 ft 183 kts 88°
2026-05-09 09:49 49.00175 2.66668 2347 ft 197 kts 87°
2026-05-09 09:49 49.00286 2.68813 2756 ft 210 kts 88°
2026-05-09 09:49 49.00402 2.71105 3148 ft 226 kts 87°
2026-05-09 09:50 49.00530 2.73584 3446 ft 243 kts 87°
2026-05-09 09:50 49.00667 2.76192 3934 ft 252 kts 87°
2026-05-09 09:50 49.00804 2.78880 4526 ft 259 kts 87°
2026-05-09 09:50 49.00947 2.81633 5205 ft 261 kts 86°
2026-05-09 09:51 49.01272 2.84377 5784 ft 269 kts 74°
2026-05-09 09:51 49.02160 2.86912 6397 ft 276 kts 52°
2026-05-09 09:51 49.03619 2.88835 7013 ft 283 kts 30°
2026-05-09 09:51 49.05478 2.89860 7642 ft 288 kts
2026-05-09 09:52 49.07470 2.89763 8361 ft 287 kts 345°
2026-05-09 09:52 49.09285 2.88586 9097 ft 284 kts 324°
2026-05-09 09:52 49.10860 2.86768 9860 ft 284 kts 318°
2026-05-09 09:52 49.12403 2.84851 10403 ft 293 kts 318°
2026-05-09 09:53 49.14032 2.82837 10719 ft 309 kts 319°
2026-05-09 09:53 49.15755 2.80722 11081 ft 325 kts 319°
2026-05-09 09:53 49.17554 2.78520 11427 ft 340 kts 319°
2026-05-09 09:53 49.19445 2.76209 11757 ft 354 kts 319°
2026-05-09 09:54 49.21396 2.73828 12194 ft 365 kts 319°
2026-05-09 09:54 49.23400 2.71383 12749 ft 371 kts 319°
2026-05-09 09:54 49.25423 2.68909 13367 ft 376 kts 319°
2026-05-09 09:54 49.27484 2.66386 13940 ft 381 kts 319°
2026-05-09 09:55 49.29559 2.63843 14508 ft 384 kts 319°
2026-05-09 09:55 49.31655 2.61272 15062 ft 388 kts 319°
2026-05-09 09:55 49.33771 2.58673 15614 ft 391 kts 319°
2026-05-09 09:55 49.35903 2.56052 16178 ft 395 kts 319°
2026-05-09 09:56 49.38056 2.53401 16726 ft 398 kts 319°
2026-05-09 09:56 49.40216 2.50739 17284 ft 401 kts 319°
2026-05-09 09:56 49.42405 2.48038 17851 ft 405 kts 319°
2026-05-09 09:56 49.44606 2.45317 18411 ft 408 kts 319°
2026-05-09 09:57 49.46828 2.42569 18884 ft 412 kts 319°
2026-05-09 09:57 49.49068 2.39794 19379 ft 416 kts 319°
2026-05-09 09:57 49.51326 2.36994 19858 ft 420 kts 319°
2026-05-09 09:57 49.53620 2.34145 20323 ft 425 kts 319°
2026-05-09 09:58 49.55905 2.31306 20798 ft 429 kts 319°
2026-05-09 09:58 49.58266 2.28367 21289 ft 433 kts 320°
2026-05-09 09:58 49.60618 2.25435 21763 ft 437 kts 320°
2026-05-09 09:58 49.62987 2.22479 22264 ft 441 kts 319°
2026-05-09 09:59 49.65388 2.19479 22756 ft 444 kts 319°
2026-05-09 09:59 49.67797 2.16465 23224 ft 448 kts 319°
2026-05-09 09:59 49.70195 2.13460 23673 ft 452 kts 319°
2026-05-09 09:59 49.72649 2.10381 24051 ft 456 kts 319°
2026-05-09 10:00 49.75156 2.07231 24378 ft 462 kts 320°
2026-05-09 10:00 49.77661 2.04080 24764 ft 466 kts 320°
2026-05-09 10:00 49.80186 2.00899 25145 ft 469 kts 319°
2026-05-09 10:00 49.82689 1.97743 25537 ft 472 kts 319°
2026-05-09 10:01 49.85271 1.94481 25928 ft 475 kts 319°
2026-05-09 10:01 49.87841 1.91230 26310 ft 479 kts 319°
2026-05-09 10:01 49.90433 1.87948 26695 ft 482 kts 319°
2026-05-09 10:01 49.93020 1.84713 27062 ft 485 kts 320°
2026-05-09 10:02 49.95707 1.81403 27456 ft 489 kts 320°
2026-05-09 10:02 49.98352 1.78162 27740 ft 493 kts 320°
2026-05-09 10:02 50.01059 1.74844 28122 ft 496 kts 320°
2026-05-09 10:02 50.03773 1.71506 28475 ft 499 kts 320°
2026-05-09 10:03 50.06500 1.68143 28829 ft 502 kts 320°
2026-05-09 10:03 50.09235 1.64721 29157 ft 505 kts 319°
2026-05-09 10:03 50.11918 1.61158 29510 ft 508 kts 317°
2026-05-09 10:03 50.14563 1.57519 29835 ft 511 kts 316°
2026-05-09 10:04 50.17227 1.53814 30136 ft 513 kts 316°
2026-05-09 10:04 50.19896 1.50106 30423 ft 515 kts 316°
2026-05-09 10:04 50.22585 1.46392 30728 ft 516 kts 316°
2026-05-09 10:04 50.25281 1.42685 30994 ft 518 kts 317°
2026-05-09 10:05 50.27985 1.38976 31246 ft 521 kts 317°
2026-05-09 10:05 50.30735 1.35207 31388 ft 525 kts 317°